Probability
0 0 0 0 0 0 0 0 0 0 3 3 6 10 10 13 16 23 35 35 29 19 23 26 32 29 52 77 84 84 84 84 84 87 87 87 81 74 77 71 71 77 71 77
0 0 0 0 0 0 0 0 0 0 3 3 6 6 10 13 19 23 26 32 32 23 32 35 39 39 48 81 87 87 87 84 84 87 87 87 84 87 74 71 71 77 77 77
0 0 0 0 0 0 0 0 0 0 0 0 6 10 10 16 19 19 23 19 23 26 32 45 45 45 61 81 81 77 87 84 84 87 87 87 84 81 71 71 68 74 74 71
0 0 0 0 0 3 3 3 0 0 0 0 0 6 16 13 16 23 16 19 23 35 42 42 48 52 65 71 81 87 87 90 90 87 87 87 81 74 71 71 74 71 71 71
0 0 0 0 0 0 3 3 0 0 3 0 0 0 10 16 19 26 19 13 16 26 32 39 42 58 65 68 77 81 90 90 90 87 87 87 84 74 68 68 68 68 61 65
0 0 0 0 0 0 0 0 0 0 0 0 0 0 6 13 16 23 26 16 23 26 35 39 45 65 65 65 71 81 87 90 84 84 81 84 81 77 68 68 68 61 61 58
0 0 0 0 0 0 0 3 0 0 0 0 0 0 6 10 13 26 26 16 19 29 35 35 35 52 55 58 55 68 81 81 84 81 81 81 81 77 74 65 68 65 55 58
0 0 0 0 0 0 3 3 3 0 0 0 0 0 10 13 16 19 23 29 19 29 26 32 35 48 55 58 58 61 81 81 81 81 84 84 81 68 68 71 65 65 61 55
0 0 0 0 0 0 0 0 0 0 0 0 0 3 10 13 13 16 23 26 26 23 26 29 32 39 48 48 55 61 77 74 81 81 81 81 74 74 71 71 68 71 68 61
0 0 0 0 0 0 0 0 0 0 0 0 0 0 6 16 16 16 16 23 29 26 32 29 29 35 39 48 58 58 68 68 68 68 68 71 71 68 61 65 68 74 74 65
0 0 0 0 0 0 0 0 0 0 0 0 0 3 6 16 19 13 23 29 32 32 29 26 35 42 48 55 58 58 65 68 68 68 65 61 61 61 58 61 65 68 68 68
0 0 0 0 0 0 0 0 0 0 0 0 0 0 6 10 13 23 19 29 26 29 29 29 32 39 42 52 55 65 61 65 65 65 65 61 65 58 61 65 68 71 71 65
0 0 0 0 0 0 0 0 0 0 0 0 0 3 3 6 10 10 29 32 39 29 32 32 32 42 39 45 45 52 55 48 48 55 58 58 58 58 61 61 65 68 68 65
0 0 0 0 3 0 0 0 0 0 0 0 0 3 3 0 6 13 29 26 32 39 42 39 39 52 48 55 52 48 39 39 39 48 52 55 58 58 58 58 58 68 65 68
0 0 0 0 0 0 0 0 0 0 0 0 0 0 0 0 10 19 26 29 35 45 42 45 55 55 55 55 45 42 39 45 39 52 52 55 58 58 58 58 65 65 65 55
0 0 0 0 0 0 0 0 0 0 0 0 0 0 0 3 3 19 26 35 39 45 45 48 55 55 55 48 45 45 45 45 48 52 52 58 55 61 61 61 61 61 61 61
0 0 0 0 0 0 0 0 0 0 0 0 0 0 0 0 13 19 26 32 42 48 45 55 58 52 45 48 45 45 45 42 48 52 55 52 52 52 52 45 52 58 58 58
0 6 3 0 0 0 0 0 0 0 0 3 3 3 3 3 10 13 23 29 35 42 48 58 48 52 48 48 45 48 42 45 55 55 55 55 52 48 48 42 42 48 55 58
0 10 0 0 0 0 0 0 0 0 0 6 6 6 6 10 16 13 16 26 32 39 52 52 42 45 42 42 45 45 39 45 45 55 52 52 48 48 48 42 42 45 42 45
0 0 0 0 0 0 0 0 0 0 6 10 10 13 13 10 10 10 16 23 26 35 42 52 45 45 45 45 42 45 42 45 48 48 55 52 48 45 42 39 42 42 48 45
0 3 0 0 0 0 3 0 0 0 3 6 6 10 13 16 19 26 26 29 29 39 45 52 48 48 55 52 45 45 45 45 52 55 55 52 52 55 45 45 48 45 39 32
0 0 6 0 0 0 0 3 3 13 6 6 10 10 13 16 26 29 35 42 35 45 39 42 52 55 58 55 48 52 48 52 58 58 58 52 55 42 35 48 55 35 35 26
0 0 0 3 0 10 6 3 3 3 6 10 13 13 23 26 29 35 35 45 45 45 45 45 48 58 58 55 52 52 55 55 52 45 45 45 48 52 48 45 42 35 35 23
0 0 0 6 3 3 0 0 0 0 0 3 10 13 23 23 29 39 35 42 42 45 45 42 48 55 58 55 52 52 58 55 48 45 52 52 48 42 45 45 32 29 26 23
0 0 3 3 0 0 0 0 0 0 0 0 6 13 16 23 26 35 39 42 45 48 55 55 52 48 52 55 48 48 52 52 48 48 45 39 39 26 42 35 23 29 19 16
0 3 0 0 0 6 6 0 0 0 0 0 6 10 13 16 19 32 35 42 48 48 55 55 52 52 48 45 48 52 48 48 48 42 42 35 35 35 29 29 13 3 3 3
Height
5912 5914 5914 5916 5918 5920 5921 5922 5922 5922 5921 5921 5920 5918 5917 5915 5915 5914 5913 5912 5911 5910 5910 5909 5908 5907 5907 5906 5905 5905 5904 5903 5903 5903 5902 5901 5901 5900 5899 5898 5898 5897 5897 5896
5911 5912 5913 5915 5918 5919 5920 5921 5921 5921 5921 5921 5919 5917 5916 5915 5915 5914 5913 5912 5911 5910 5910 5909 5908 5907 5907 5906 5906 5905 5904 5903 5903 5902 5902 5901 5900 5899 5898 5898 5897 5896 5896 5895
5908 5911 5912 5914 5916 5917 5919 5920 5920 5920 5920 5920 5918 5917 5916 5914 5914 5914 5913 5912 5911 5910 5910 5909 5908 5907 5907 5906 5906 5905 5904 5903 5902 5902 5901 5900 5899 5898 5898 5897 5896 5896 5895 5894
5906 5909 5911 5913 5914 5916 5916 5918 5919 5918 5918 5918 5918 5915 5914 5911 5912 5912 5912 5911 5910 5910 5909 5908 5908 5907 5906 5906 5905 5904 5904 5903 5902 5901 5900 5899 5898 5898 5897 5896 5895 5894 5893 5893
5903 5906 5907 5910 5912 5913 5914 5916 5916 5916 5916 5915 5915 5914 5912 5911 5910 5910 5910 5909 5909 5908 5908 5907 5906 5906 5905 5905 5904 5903 5902 5901 5900 5899 5898 5898 5897 5896 5895 5894 5893 5893 5892 5891
5899 5902 5904 5907 5908 5910 5911 5912 5913 5913 5912 5912 5912 5912 5910 5909 5909 5908 5908 5908 5908 5907 5906 5906 5905 5904 5904 5903 5902 5902 5901 5900 5899 5898 5897 5896 5895 5894 5893 5892 5891 5891 5890 5889
5896 5898 5901 5903 5904 5906 5908 5910 5910 5910 5909 5909 5909 5909 5908 5907 5906 5906 5907 5906 5906 5906 5905 5904 5904 5903 5902 5901 5900 5900 5899 5898 5897 5895 5894 5893 5893 5892 5891 5890 5889 5888 5887 5887
5893 5896 5897 5898 5900 5902 5904 5907 5908 5908 5908 5907 5907 5906 5906 5906 5905 5904 5904 5904 5904 5903 5903 5902 5902 5901 5900 5899 5898 5897 5897 5896 5894 5893 5892 5891 5890 5889 5888 5887 5886 5885 5884 5883
5889 5891 5893 5894 5896 5898 5900 5902 5905 5905 5904 5905 5904 5904 5903 5902 5901 5901 5902 5902 5901 5900 5900 5900 5899 5898 5897 5896 5896 5895 5895 5893 5892 5890 5889 5888 5887 5886 5885 5884 5883 5882 5881 5880
5883 5886 5888 5890 5892 5893 5895 5897 5900 5901 5901 5901 5900 5900 5899 5898 5898 5898 5898 5897 5897 5897 5897 5896 5896 5895 5894 5893 5892 5892 5892 5890 5889 5887 5886 5884 5883 5883 5882 5881 5879 5878 5877 5876
5877 5880 5882 5885 5887 5889 5892 5893 5895 5896 5897 5897 5897 5896 5894 5894 5894 5894 5894 5893 5893 5894 5893 5892 5892 5891 5891 5890 5889 5889 5888 5887 5886 5884 5882 5881 5880 5879 5878 5877 5876 5874 5873 5873
5872 5873 5875 5879 5882 5884 5886 5888 5890 5892 5892 5893 5893 5894 5892 5889 5890 5890 5890 5890 5889 5888 5887 5887 5887 5887 5887 5886 5886 5885 5884 5883 5882 5880 5879 5877 5876 5875 5874 5873 5871 5870 5869 5868
5865 5867 5869 5873 5878 5878 5879 5882 5884 5886 5887 5888 5889 5890 5887 5884 5885 5883 5883 5884 5884 5884 5883 5882 5882 5882 5882 5881 5881 5880 5879 5878 5877 5876 5875 5873 5872 5871 5869 5868 5866 5865 5864 5863
5858 5860 5864 5867 5869 5871 5872 5874 5877 5879 5881 5882 5883 5883 5881 5880 5879 5878 5879 5879 5878 5879 5879 5878 5878 5877 5877 5877 5876 5875 5875 5873 5872 5871 5870 5868 5867 5865 5864 5863 5861 5860 5859 5857
5851 5853 5855 5858 5860 5863 5865 5867 5870 5872 5873 5875 5876 5876 5876 5874 5873 5872 5873 5874 5873 5873 5873 5873 5873 5872 5872 5871 5871 5870 5869 5868 5867 5866 5864 5863 5861 5859 5858 5857 5855 5854 5852 5851
5843 5845 5847 5850 5853 5855 5856 5860 5862 5866 5867 5868 5869 5869 5869 5869 5867 5867 5869 5868 5868 5867 5867 5867 5867 5866 5866 5866 5865 5865 5864 5862 5861 5860 5858 5857 5855 5854 5852 5850 5849 5847 5845 5844
5834 5838 5840 5842 5845 5847 5849 5853 5855 5857 5860 5862 5862 5863 5862 5862 5862 5863 5863 5863 5863 5862 5861 5861 5861 5860 5860 5860 5859 5858 5857 5856 5855 5853 5852 5850 5848 5847 5845 5844 5842 5840 5838 5837
5827 5829 5832 5834 5837 5838 5844 5846 5848 5850 5851 5853 5853 5855 5855 5856 5855 5855 5855 5856 5857 5856 5855 5855 5855 5854 5854 5853 5852 5851 5850 5849 5848 5846 5845 5843 5841 5840 5838 5836 5834 5832 5830 5828
5819 5821 5824 5826 5829 5831 5836 5838 5840 5841 5843 5844 5846 5847 5849 5849 5850 5850 5850 5850 5850 5850 5849 5848 5848 5848 5847 5847 5846 5844 5843 5842 5840 5839 5837 5836 5834 5832 5830 5828 5826 5824 5822 5820
5812 5814 5816 5818 5821 5824 5828 5830 5832 5835 5835 5837 5838 5840 5842 5842 5843 5843 5843 5843 5843 5843 5842 5840 5840 5841 5840 5839 5839 5838 5836 5835 5833 5832 5830 5828 5827 5825 5823 5821 5819 5817 5814 5812
5803 5805 5808 5810 5812 5815 5820 5821 5824 5826 5827 5829 5829 5832 5834 5835 5836 5836 5836 5836 5836 5836 5836 5835 5835 5834 5833 5833 5831 5830 5829 5827 5826 5824 5823 5821 5819 5817 5816 5814 5812 5809 5807 5805
5795 5798 5800 5803 5805 5809 5810 5812 5815 5816 5819 5821 5822 5824 5826 5827 5828 5829 5829 5830 5829 5829 5829 5828 5827 5827 5826 5825 5824 5823 5821 5820 5818 5817 5815 5814 5812 5810 5808 5806 5804 5802 5800 5798
5787 5790 5792 5795 5797 5798 5801 5804 5806 5808 5810 5812 5814 5816 5817 5819 5820 5821 5822 5822 5822 5822 5821 5821 5820 5819 5819 5818 5817 5815 5814 5812 5811 5809 5808 5806 5804 5802 5800 5798 5796 5795 5792 5790
5777 5780 5782 5783 5785 5788 5792 5794 5797 5799 5801 5803 5805 5807 5809 5810 5812 5813 5814 5814 5814 5815 5814 5814 5813 5813 5812 5810 5809 5808 5806 5805 5803 5801 5800 5798 5796 5795 5793 5791 5788 5786 5784 5782
5767 5769 5771 5773 5777 5779 5782 5785 5788 5791 5793 5795 5797 5799 5800 5802 5803 5805 5806 5807 5807 5807 5807 5807 5806 5805 5804 5803 5802 5800 5799 5797 5795 5793 5792 5790 5788 5786 5785 5783 5781 5779 5777 5774
5759 5761 5762 5765 5768 5771 5774 5777 5780 5782 5785 5787 5789 5791 5792 5794 5796 5798 5799 5800 5800 5800 5800 5800 5799 5798 5796 5795 5794 5793 5791 5789 5787 5785 5783 5781 5780 5778 5777 5775 5773 5771 5769 5767
Wind_Speed
8 8 8 6 5 4 4 6 6 7 6 8 8 9 9 9 10 10 10 9 8 7 8 8 8 7 7 7 7 7 7 7 6 6 6 7 7 8 8 7 7 7 7 7
10 10 8 7 7 7 6 7 8 8 7 9 10 9 10 10 10 10 10 9 8 8 7 7 7 7 7 8 8 8 8 7 7 7 7 8 8 8 8 8 8 8 7 8
12 11 10 10 10 9 9 10 9 9 9 9 11 10 11 10 10 11 11 9 9 8 8 7 7 7 8 8 8 8 8 8 8 8 9 9 9 9 10 9 8 8 9 9
14 14 13 12 13 13 12 11 11 11 10 10 12 13 13 12 10 11 11 10 9 9 8 8 7 8 8 9 9 9 9 10 10 10 10 10 10 10 10 10 10 10 10 10
15 16 15 15 15 15 13 13 12 12 12 12 13 14 14 13 11 12 12 12 11 10 9 8 8 8 10 10 10 10 11 11 11 11 11 11 11 11 11 11 11 11 11 11
18 17 17 17 17 16 15 14 14 13 15 16 13 13 14 14 13 13 13 13 12 11 10 10 10 10 11 11 11 11 12 12 12 11 12 12 12 12 12 12 13 13 12 12
17 17 17 17 17 16 15 15 15 15 15 16 12 14 15 13 14 14 13 14 14 13 13 12 12 13 13 12 12 12 12 12 13 13 13 13 13 13 14 14 14 14 14 13
18 18 18 18 18 17 16 16 16 16 15 13 13 14 14 14 15 15 14 14 15 14 13 13 14 14 13 13 13 13 13 13 14 14 14 14 14 14 14 15 15 15 14 14
21 21 19 20 20 20 19 18 17 16 15 15 14 14 15 16 16 16 15 15 15 15 15 14 15 15 15 14 14 14 15 15 15 15 15 15 15 15 16 16 16 15 14 14
22 22 21 20 20 21 20 18 17 18 18 19 17 17 18 17 16 17 19 16 15 17 17 17 16 16 16 16 15 15 15 15 16 16 16 16 16 16 16 16 16 16 16 15
24 23 22 22 21 20 20 19 19 19 19 18 19 19 17 17 18 19 19 19 18 18 18 17 18 18 18 18 18 17 17 16 17 17 18 17 17 17 17 18 18 18 18 18
25 25 25 24 22 21 22 22 22 22 21 19 20 22 18 17 18 20 20 20 21 21 20 20 20 20 19 19 18 18 18 18 18 18 19 19 19 19 19 20 20 20 20 20
28 28 26 24 22 23 23 23 23 23 23 21 21 22 21 20 20 22 23 22 23 23 22 22 21 20 20 20 20 20 20 20 20 20 20 21 21 21 21 22 22 22 22 21
29 28 27 27 25 24 25 24 23 24 24 23 23 23 23 23 22 23 24 23 23 23 23 22 21 21 21 21 21 21 22 22 22 22 22 23 22 23 23 23 24 24 24 24
29 28 28 28 26 26 26 24 24 26 25 24 23 24 24 25 26 24 24 23 23 24 23 23 23 22 22 22 22 23 23 24 25 25 25 25 24 24 25 25 25 26 26 26
31 31 30 30 28 27 25 25 26 27 25 25 25 25 25 26 26 25 25 24 23 24 24 23 23 23 23 23 24 24 25 26 26 27 27 27 27 27 26 26 26 27 27 27
30 32 32 30 28 28 28 25 25 25 24 25 27 27 28 29 28 26 25 25 23 24 25 24 24 24 24 24 25 25 26 27 28 29 29 29 29 28 29 29 29 28 28 28
30 31 33 31 31 31 28 26 26 26 25 26 28 28 29 29 28 27 26 25 24 25 26 25 24 24 24 25 26 27 27 28 29 29 29 30 30 29 30 30 30 30 30 29
30 31 32 32 32 30 27 26 26 27 27 28 29 28 28 28 28 27 27 25 24 24 25 25 25 25 25 25 26 27 28 29 29 30 30 30 30 29 29 29 29 29 30 29
30 31 33 33 32 31 28 28 27 27 30 30 29 29 28 27 27 28 28 27 27 25 26 25 25 26 26 26 27 28 28 28 28 29 29 28 29 29 28 28 28 29 29 29
30 32 33 33 32 30 29 29 27 28 31 29 27 28 28 28 28 28 28 28 27 27 27 27 27 27 27 27 27 27 27 27 28 28 28 28 28 28 28 28 28 28 28 28
30 31 32 33 33 32 30 29 30 30 29 30 29 28 28 28 28 28 28 27 27 28 28 28 27 28 28 28 27 28 28 28 29 28 28 28 28 28 28 28 28 28 28 28
31 31 32 32 33 32 30 32 32 31 30 30 29 29 29 28 28 28 28 27 27 28 28 28 27 26 27 28 28 28 29 29 29 29 29 29 29 29 29 28 28 28 28 27
31 31 33 34 36 35 33 33 33 31 31 30 29 30 29 28 28 28 28 28 27 28 28 28 27 27 27 28 28 29 29 29 30 30 30 30 30 30 30 29 29 29 28 28
33 33 33 35 36 36 34 33 32 32 30 31 31 30 29 28 27 28 28 27 27 28 28 28 27 27 28 28 29 29 29 30 30 31 31 31 31 29 28 28 28 28 29 29
33 33 33 34 35 36 36 35 34 33 32 33 32 31 30 29 27 27 28 28 27 27 27 27 27 28 28 29 29 29 29 30 31 31 31 31 30 29 28 29 29 29 29 29
Wind_Direction
198 212 226 215 210 228 248 265 265 275 286 292 301 309 318 335 341 342 342 345 345 349 358 2 3 2 1 358 357 358 354 351 353 354 353 349 343 340 334 329 327 325 321 323
212 224 232 220 220 226 242 263 265 266 275 283 282 288 308 317 329 332 334 334 338 342 349 353 353 355 356 356 355 354 350 347 344 341 341 338 338 336 333 329 325 324 321 322
229 231 234 233 233 234 249 253 261 268 269 272 280 279 292 296 310 320 323 321 326 330 338 346 344 345 347 347 348 350 345 339 336 332 332 328 326 326 330 327 323 321 319 318
233 234 229 233 241 239 245 247 258 264 266 272 270 278 292 296 295 305 312 312 314 320 323 331 334 333 337 339 338 335 333 329 327 325 325 324 320 319 322 320 316 315 315 315
234 237 232 236 239 238 240 245 250 254 256 261 267 272 282 289 292 295 304 308 307 313 319 320 321 323 326 329 327 325 325 324 322 319 317 317 318 317 315 314 310 308 309 310
232 235 237 240 241 240 242 245 251 250 252 254 257 269 275 282 287 292 300 302 302 303 309 311 309 316 318 320 320 321 321 320 318 315 313 311 309 310 312 312 308 304 303 303
236 239 240 239 241 240 242 247 254 261 261 265 264 260 266 274 283 285 289 293 294 294 298 301 300 304 309 312 314 316 316 316 316 314 312 310 307 306 308 310 309 309 306 303
243 245 240 239 243 241 237 239 247 262 270 274 275 266 267 275 279 280 281 282 282 285 290 295 296 296 300 303 306 308 311 313 314 313 310 307 305 305 306 307 308 307 307 303
236 240 239 241 241 239 238 240 247 259 261 262 262 268 263 267 272 275 279 278 278 281 284 287 291 293 294 295 298 301 304 307 310 311 308 306 304 305 306 307 308 307 305 303
233 237 234 240 245 244 241 241 240 245 254 256 258 262 262 264 266 273 277 274 277 281 281 282 288 290 289 292 295 297 298 302 306 311 309 305 303 303 304 304 305 305 304 303
237 236 237 237 237 240 240 240 237 241 248 259 268 267 271 274 276 279 281 279 279 284 282 282 283 285 286 288 290 292 293 297 301 305 307 305 304 305 304 302 302 300 300 299
239 242 241 237 239 239 238 240 241 244 248 251 261 267 265 262 272 275 274 276 280 280 278 277 278 280 282 284 284 286 290 294 298 300 302 301 300 301 302 300 299 297 296 296
239 240 242 240 237 238 239 242 242 243 247 251 256 266 269 269 269 267 267 272 276 277 278 278 278 280 280 281 282 284 287 290 293 296 299 299 298 299 299 299 297 294 294 293
238 238 240 240 237 237 237 237 237 239 242 246 250 261 266 267 265 268 272 273 273 276 277 279 279 279 278 278 280 283 284 286 290 293 295 297 297 296 297 297 296 293 291 291
239 240 241 243 241 236 235 239 243 245 246 249 251 256 260 262 262 266 271 274 278 280 277 277 278 278 276 275 279 281 283 284 288 290 292 294 295 295 294 294 294 293 291 289
241 240 240 244 244 240 236 238 245 247 248 252 251 251 254 260 263 269 273 275 276 278 278 279 279 278 277 277 279 281 282 284 287 289 291 293 293 293 292 293 293 293 291 289
242 242 240 243 245 245 242 241 246 247 246 250 250 252 255 258 263 267 272 275 276 277 277 279 282 280 278 278 281 282 283 284 286 288 290 291 292 293 293 293 292 291 289 289
244 243 243 242 242 242 241 239 240 243 244 247 250 252 256 261 262 264 268 271 274 277 279 279 279 279 280 280 282 284 284 285 286 288 290 290 291 292 293 293 293 291 288 286
245 245 243 243 244 246 245 243 238 241 243 245 249 255 259 261 263 265 267 269 268 273 274 275 276 276 278 280 284 285 286 286 287 289 290 290 290 292 292 293 294 293 292 288
245 246 245 242 244 245 243 244 243 244 246 246 252 256 257 260 262 264 268 270 270 274 277 278 279 279 280 282 284 287 286 287 288 289 289 289 290 291 291 291 293 294 293 290
244 245 245 244 245 245 243 244 244 244 248 251 253 257 261 261 261 264 266 270 273 274 275 276 279 279 280 282 284 286 287 287 288 289 289 290 291 291 290 290 292 293 294 292
244 246 244 244 246 246 244 242 242 247 252 254 255 257 259 261 261 264 266 268 270 271 272 275 278 281 282 283 284 285 287 287 289 290 289 290 290 290 290 290 291 293 292 292
240 241 240 242 244 245 246 243 244 247 253 255 256 256 258 260 260 262 264 267 269 271 274 278 279 283 284 284 285 286 288 289 289 290 289 289 289 289 290 290 291 292 292 293
240 238 238 239 241 242 243 243 243 247 251 253 254 255 259 259 259 260 262 265 267 271 273 278 280 283 286 286 286 286 288 289 289 289 288 288 287 288 288 290 291 293 293 293
238 239 239 238 239 243 243 241 243 247 250 252 255 255 255 256 257 259 262 266 268 269 272 277 279 281 285 285 286 287 287 288 289 289 288 288 288 288 288 289 291 293 294 293
237 239 242 240 239 242 244 243 244 246 248 250 252 253 255 257 257 259 262 265 268 270 272 275 278 280 284 286 285 287 288 289 290 289 289 289 288 288 290 290 292 293 293 293